(282619) = 2001 UC90 = 2005 JM100

Discovered at Kitt Peak on 2005-05-09 by Spacewatch.

Orbit

Orbit type: Main Belt

Note: WebGL enabled browser required.

epoch2022-01-21.0
epoch JD2459600.5
perihelion date2016-04-24.43165
perihelion JD2457502.93165
argument of perihelion (°)350.77120
ascending node (°)200.49615
inclination (°)13.54450
eccentricity0.0374708
perihelion distance (AU)3.1177036
Tisserand w.r.t. Jupiter3.1
ΔV w.r.t. Earth (km/sec)11.7
semimajor axis (AU)3.2390743
mean anomaly (°)354.64072
mean daily motion (°/day)0.16907230
aphelion distance (AU)3.360
period (years)5.83
P-vector [x]-0.97916440
P-vector [y]-0.16815682
P-vector [z]-0.11384354
Q-vector [x]0.18577517
Q-vector [y]-0.96816039
Q-vector [z]-0.16778868
absolute magnitude16.06
phase slope0.15
uncertainty0
referenceMPO 696822
observations used233
oppositions12
arc length (days)7496
first opposition used2001
last opposition used2022
residual rms (arc-secs)0.78
perturbers coarse indicatorM-v
perturbers precise indicator003Ek
first observation date used2001-10-21.0
last observation date used2022-04-30.0
computer namePan
JD of orbit computation2456639.572292
perihelion JD uncertainty (days)5.4821E-04
argument of perihelion uncertainty (°)9.4739E-05
ascending node uncertainty (°)2.4078E-05
inclination uncertainty (°)1.2892E-05
eccentricity uncertainty 1.4289E-07
perihelion distance uncertainty (AU)4.8843E-07
Minimum Orbit Intersection Distances (in AU)
for orbit epoch: 2458200.5, reference: MPO413231
Mercury2.68012
Venus2.39223
Earth2.11074
Mars1.4794
Jupiter1.59215
Saturn5.87481
Uranus15.1024
Neptune26.5062

Observations

237 total observations over interval: 2001 10 21.17172 – 2022 04 30.358388
These data are available for download (format description).

Date (UT) J2000 RA J2000 Dec Magn Location Ref
2001 10 21.17172 00 37 03.20 +05 51 05.6 21.5 V 691 – Steward Observatory, Kitt Peak-Spacewatch MPS 41158
2001 10 21.19246 00 37 02.47 +05 50 56.4 21.1 V 691 – Steward Observatory, Kitt Peak-Spacewatch MPS 41158
2001 10 21.21325 00 37 01.73 +05 50 47.5 21.3 V 691 – Steward Observatory, Kitt Peak-Spacewatch MPS 41158
2001 10 24.10077 00 35 24.31 +05 30 16.7 21.6 V 691 – Steward Observatory, Kitt Peak-Spacewatch MPS 41158
2001 10 24.12234 00 35 23.58 +05 30 07.4 21.6 V 691 – Steward Observatory, Kitt Peak-Spacewatch MPS 41158
2001 10 24.14498 00 35 22.77 +05 29 58.5 21.5 V 691 – Steward Observatory, Kitt Peak-Spacewatch MPS 41158
2005 05 09.28202 16 00 26.88 -08 43 53.9 21.1 V 691 – Steward Observatory, Kitt Peak-Spacewatch MPS 134968
2005 05 09.29988 16 00 26.11 -08 43 47.4 20.5 V 691 – Steward Observatory, Kitt Peak-Spacewatch MPS 134968
2005 05 09.31754 16 00 25.35 -08 43 40.8 20.5 V 691 – Steward Observatory, Kitt Peak-Spacewatch MPS 134968
2005 05 13.31718 15 57 37.10 -08 19 41.6 20.8 V 691 – Steward Observatory, Kitt Peak-Spacewatch MPS 134968
2005 05 13.33498 15 57 36.38 -08 19 34.0 20.2 V 691 – Steward Observatory, Kitt Peak-Spacewatch MPS 134968
2005 05 13.35228 15 57 35.57 -08 19 29.4 20.8 V 691 – Steward Observatory, Kitt Peak-Spacewatch MPS 134968
2005 05 20.26392 15 52 35.14 -07 40 47.8 20.4 V G96 – Mt. Lemmon Survey MPS 134968
2005 05 20.27056 15 52 34.86 -07 40 45.0 19.4 V G96 – Mt. Lemmon Survey MPS 134968
2005 05 20.27716 15 52 34.57 -07 40 42.7 20.1 V G96 – Mt. Lemmon Survey MPS 134968
2005 05 20.28377 15 52 34.24 -07 40 40.9 20.3 V G96 – Mt. Lemmon Survey MPS 134968
2005 06 05.21867 15 41 27.85 -06 30 10.5 21.1 V 691 – Steward Observatory, Kitt Peak-Spacewatch MPS 135981
2005 06 05.23607 15 41 27.18 -06 30 07.2 20.9 V 691 – Steward Observatory, Kitt Peak-Spacewatch MPS 135981
2005 06 05.25691 15 41 26.33 -06 30 03.0 20.8 V 691 – Steward Observatory, Kitt Peak-Spacewatch MPS 135981
2007 09 14.37709 01 51 34.48 +11 56 55.9 21.3 V G96 – Mt. Lemmon Survey MPS 216241
2007 09 14.38271 01 51 34.34 +11 56 54.3 20.9 V G96 – Mt. Lemmon Survey MPS 216241
2007 09 14.38819 01 51 34.20 +11 56 52.9 21.0 V G96 – Mt. Lemmon Survey MPS 216241
2007 09 14.39374 01 51 34.09 +11 56 51.4 20.9 V G96 – Mt. Lemmon Survey MPS 216241
2007 09 15.30918 01 51 15.12 +11 52 20.3 20.5 V G96 – Mt. Lemmon Survey MPS 216241
2007 09 15.31514 01 51 14.97 +11 52 18.6 21.2 V G96 – Mt. Lemmon Survey MPS 216241
2007 09 15.32108 01 51 14.83 +11 52 16.8 21.2 V G96 – Mt. Lemmon Survey MPS 216241
2007 09 15.32698 01 51 14.72 +11 52 14.7 21.1 V G96 – Mt. Lemmon Survey MPS 216241
2007 10 04.25728 01 41 47.72 +09 58 29.6   691 – Steward Observatory, Kitt Peak-Spacewatch MPS 218099
2007 10 04.27491 01 41 47.04 +09 58 22.1   691 – Steward Observatory, Kitt Peak-Spacewatch MPS 218099
2007 10 04.29252 01 41 46.38 +09 58 14.8   691 – Steward Observatory, Kitt Peak-Spacewatch MPS 218099
2007 10 07.33821 01 39 51.12 +09 37 04.4 20.7 V G96 – Mt. Lemmon Survey MPS 218682
2007 10 07.34384 01 39 50.86 +09 37 01.8 20.6 V G96 – Mt. Lemmon Survey MPS 218682
2007 10 07.34940 01 39 50.65 +09 36 59.8 20.7 V G96 – Mt. Lemmon Survey MPS 218682
2007 10 07.35498 01 39 50.40 +09 36 57.5 20.4 V G96 – Mt. Lemmon Survey MPS 218682
2007 10 18.33893 01 32 29.40 +08 17 40.3 20.5 V G96 – Mt. Lemmon Survey MPS 220562
2007 10 18.34260 01 32 29.25 +08 17 38.6 20.6 V G96 – Mt. Lemmon Survey MPS 220562
2007 10 18.34619 01 32 29.11 +08 17 37.1 20.6 V G96 – Mt. Lemmon Survey MPS 220562
2007 10 18.34988 01 32 28.96 +08 17 35.2 20.4 V G96 – Mt. Lemmon Survey MPS 220562
2010 03 13.471420 11 13 58.097 -05 33 32.04 20.72 r F51 – Pan-STARRS 1, Haleakala MPS 337334
2010 03 13.481130 11 13 57.700 -05 33 27.81 21.15 r F51 – Pan-STARRS 1, Haleakala MPS 337334
2010 06 03.062817 11 08 33.605 +01 31 43.72   C51 – WISE MPS 903910
2010 06 03.459728 11 08 49.13 +01 31 42.2   C51 – WISE MPS 330781
2010 06 03.525815 11 08 51.68 +01 31 39.9   C51 – WISE MPS 330781
2010 06 03.658118 11 08 56.98 +01 31 41.3   C51 – WISE MPS 330781
2010 06 03.72433 11 08 59.62 +01 31 40.6   C51 – WISE MPS 330781
2010 06 03.790422 11 09 02.441 +01 31 41.70   C51 – WISE MPS 903910
2010 06 04.055030 11 09 12.533 +01 31 40.30   C51 – WISE MPS 903910
2010 06 04.187333 11 09 17.99 +01 31 38.1   C51 – WISE MPS 330781
2011 06 08.31612 16 45 02.66 -06 29 28.3 19.9 V G96 – Mt. Lemmon Survey MPS 384663
2011 06 08.32357 16 45 02.34 -06 29 26.4 20.0 V G96 – Mt. Lemmon Survey MPS 384663
2011 06 08.33104 16 45 02.01 -06 29 25.1 19.9 V G96 – Mt. Lemmon Survey MPS 384663
2011 06 08.33847 16 45 01.69 -06 29 23.6 19.8 V G96 – Mt. Lemmon Survey MPS 384663
2011 07 02.21865 16 29 54.09 -05 53 47.4 21.3 V G96 – Mt. Lemmon Survey MPS 386287
2011 07 02.22561 16 29 53.88 -05 53 47.8 21.0 V G96 – Mt. Lemmon Survey MPS 386287
2011 07 02.23388 16 29 53.62 -05 53 47.5 20.8 V G96 – Mt. Lemmon Survey MPS 386287
2011 07 02.24084 16 29 53.41 -05 53 48.1 21.0 V G96 – Mt. Lemmon Survey MPS 386287
2013 10 03.42361 02 36 08.975 +11 29 32.16 21.2 w F51 – Pan-STARRS 1, Haleakala MPS 479896
2013 10 03.43891 02 36 08.521 +11 29 26.67 21.2 w F51 – Pan-STARRS 1, Haleakala MPS 479896
2013 10 03.45406 02 36 08.053 +11 29 21.08 21.4 w F51 – Pan-STARRS 1, Haleakala MPS 479896
2013 10 03.46933 02 36 07.597 +11 29 15.64 21.2 w F51 – Pan-STARRS 1, Haleakala MPS 479896
2013 10 12.32603 02 31 17.84 +10 32 55.5 20.8 V 691 – Steward Observatory, Kitt Peak-Spacewatch MPS 482148
2013 10 12.34376 02 31 17.17 +10 32 48.0 21.0 V 691 – Steward Observatory, Kitt Peak-Spacewatch MPS 482148
2013 10 12.36146 02 31 16.53 +10 32 41.5 21.1 V 691 – Steward Observatory, Kitt Peak-Spacewatch MPS 482148
2013 10 24.30417 02 23 25.53 +09 11 25.4 20.2 V G96 – Mt. Lemmon Survey MPS 490886
2013 10 24.30888 02 23 25.34 +09 11 23.5 20.2 V G96 – Mt. Lemmon Survey MPS 490886
2013 10 24.31356 02 23 25.14 +09 11 21.9 20.4 V G96 – Mt. Lemmon Survey MPS 490886
2013 10 24.31828 02 23 24.90 +09 11 19.8 20.2 V G96 – Mt. Lemmon Survey MPS 490886
2013 10 26.26826 02 22 03.12 +08 57 56.0 20.4 V G96 – Mt. Lemmon Survey MPS 485088
2013 10 26.27324 02 22 02.91 +08 57 54.1 20.0 V G96 – Mt. Lemmon Survey MPS 485088
2013 10 26.27821 02 22 02.69 +08 57 51.7 20.2 V G96 – Mt. Lemmon Survey MPS 485088
2013 10 26.28320 02 22 02.48 +08 57 49.4 20.3 V G96 – Mt. Lemmon Survey MPS 485088
2013 11 25.24762 02 03 04.371 +06 01 22.34 21.1 w F51 – Pan-STARRS 1, Haleakala MPS 489804
2013 11 25.26265 02 03 03.939 +06 01 18.49 21.2 w F51 – Pan-STARRS 1, Haleakala MPS 489804
2013 11 25.27769 02 03 03.509 +06 01 14.50 21.2 w F51 – Pan-STARRS 1, Haleakala MPS 489804
2013 11 25.29272 02 03 03.053 +06 01 10.65 21.2 w F51 – Pan-STARRS 1, Haleakala MPS 489804
2016 03 02.47244 12 28 57.593 -09 54 41.43 20.4 r F51 – Pan-STARRS 1, Haleakala MPS 689592
2016 03 02.48430 12 28 57.242 -09 54 37.75 20.6 r F51 – Pan-STARRS 1, Haleakala MPS 689592
2016 03 02.49594 12 28 56.890 -09 54 33.69 20.4 r F51 – Pan-STARRS 1, Haleakala MPS 689592
2016 03 02.50755 12 28 56.544 -09 54 29.83 20.5 r F51 – Pan-STARRS 1, Haleakala MPS 689592
2016 03 12.44463 12 23 31.533 -08 52 16.57 20.5 w F51 – Pan-STARRS 1, Haleakala MPS 695490
2016 03 12.45780 12 23 31.038 -08 52 11.15 20.6 w F51 – Pan-STARRS 1, Haleakala MPS 695490
2016 03 12.47097 12 23 30.538 -08 52 05.56 20.4 w F51 – Pan-STARRS 1, Haleakala MPS 695490
2016 03 12.48415 12 23 30.038 -08 52 00.08 20.6 w F51 – Pan-STARRS 1, Haleakala MPS 695490
2016 03 13.42983 12 22 55.712 -08 45 21.29 20.6 w F51 – Pan-STARRS 1, Haleakala MPS 695490
2016 03 13.45994 12 22 54.565 -08 45 08.43 20.5 w F51 – Pan-STARRS 1, Haleakala MPS 695490
2016 03 13.47500 12 22 53.987 -08 45 02.00 20.6 w F51 – Pan-STARRS 1, Haleakala MPS 695490
2016 03 18.25229 12 19 54.09 -08 09 51.7 20.4 V 691 – Steward Observatory, Kitt Peak-Spacewatch MPS 695490
2016 03 18.27078 12 19 53.36 -08 09 43.5 20.2 V 691 – Steward Observatory, Kitt Peak-Spacewatch MPS 695490
2016 03 18.28929 12 19 52.62 -08 09 35.2 20.1 V 691 – Steward Observatory, Kitt Peak-Spacewatch MPS 695490
2016 03 28.33101 12 13 17.72 -06 49 17.3 20.2 V G96 – Mt. Lemmon Survey MPS 698307
2016 03 28.33621 12 13 17.52 -06 49 14.4 20.1 V G96 – Mt. Lemmon Survey MPS 698307
